Regional Weather Roundup
Issued by NWS Northern Indiana

Home | Current Version | Previous Version | Graphics & Text | Print | Product List | Glossary On
Versions: 1 2 3 4 5 6 7 8 9 10 11 12 13 14 15 16 17 18 19 20 21 22 23 24 25 26 27 28 29 30 31 32 33 34 35 36 37 38 39 40 41 42 43 44 45 46 47 48 49 50
000
ASUS43 KIWX 281910
RWRIWX

KIWX WEATHER ROUNDUP
NATIONAL WEATHER SERVICE NORTHERN INDIANA
200 PM EST SUN DEC 28 2014

NOTE: "FAIR" INDICATES FEW OR NO CLOUDS BELOW 12,000 FEET WITH NO
SIGNIFICANT WEATHER AND/OR OBSTRUCTIONS TO VISIBILITY.

* THESE STATIONS ARE NOT UNDER NWS QUALITY CONTROL. THEY ALSO MAY NOT
  REPORT WEATHER SUCH AS PRECIPITATION OR FOG.

INZ001>027-282000-
NORTHERN INDIANA

CITY           SKY/WX    TMP DP  RH WIND       PRES   REMARKS
GARY*          PTSUNNY   32  14  47 W10       30.17  WCI  24
VALPARAISO     MOSUNNY   32  23  69 SW8       30.15F WCI  25
MICHIGAN CITY* PTSUNNY   32  21  64 W6        30.15S WCI  26
LAPORTE*       MOSUNNY   35  26  69 SW5       30.14S WCI  31
KNOX*          MOSUNNY   32  23  69 SW7       30.15S WCI  25
SOUTH BEND     MOSUNNY   35  23  61 W9        30.13F WCI  28
ELKHART*       MOSUNNY   36  21  55 W8        30.13F
GOSHEN         PTSUNNY   33  25  72 W8        30.12F WCI  26
MONTICELLO*    CLOUDY    29  24  82 W6        30.16F WCI  23
LOGANSPORT*    CLOUDY    30  27  86 W6        30.16S WCI  24
ROCHESTER*     CLOUDY    34  28  80 W3        30.15S
WARSAW*        CLOUDY    32  27  80 W5        30.13S WCI  27
FORT WAYNE     CLOUDY    34  27  75 NW8       30.13S WCI  27
HUNTINGTON*    CLOUDY    33  23  68 NW5       30.13F WCI  28
PERU/GRISSOM   CLOUDY    30  30 100 W5        30.14F WCI  25
MARION*        CLOUDY    31  27  84 NW6       30.15R WCI  25

$$
INZ028>050-282000-
CENTRAL INDIANA

CITY           SKY/WX    TMP DP  RH WIND       PRES   REMARKS
LAFAYETTE      CLOUDY    28  23  81 NW3       30.18S
KOKOMO*        CLOUDY    30  25  80 W6        30.15S WCI  24
MUNCIE*        CLOUDY    33  27  78 NW8       30.13S WCI  26
INDIANAPOLIS   CLOUDY    30  25  81 NW8       30.15F WCI  22

$$
MIZ043>046-050>051-056>058-064>065-071>073-077>080-282000-
SOUTHWEST LOWER MICHIGAN

CITY           SKY/WX    TMP DP  RH WIND       PRES   REMARKS
BATTLE CREEK   PTSUNNY   36  23  59 NW10      30.09F
BENTON HARBOR  PTSUNNY   31  24  75 W12       30.14S WCI  22
COLDWATER*     PTSUNNY   34  24  67 W10       30.09F WCI  26
HILLSDALE*     CLOUDY    33  25  72 W9        30.08R WCI  26
HOLLAND        MOSUNNY   35  21  56 W8        30.12F WCI  29
GRAND RAPIDS   MOSUNNY   33  21  61 W13       30.09F WCI  24
KALAMAZOO      PTSUNNY   35  22  58 W9        30.10F WCI  28
STURGIS*       PTSUNNY   34  25  69 W10       30.10S WCI  26
THREE RIVERS*  FAIR      36  23  59 NW6       30.12S

$$
OHZ001>008-015>018-024>025-282000-
NORTHWEST OHIO

CITY           SKY/WX    TMP DP  RH WIND       PRES   REMARKS
WAUSEON*       FAIR      36  27  69 NW13      30.09S
DEFIANCE       CLOUDY    36  26  67 W10       30.12S
FINDLAY        CLOUDY    37  29  72 NW9       30.09R
TOLEDO EXPRESS CLOUDY    36  26  67 W10       30.09S
TOLEDO METCALF CLOUDY    39  28  64 W10       30.09S
LIMA           CLOUDY    36  29  75 W9        30.10R

$$
AND FOR LAKE MICHIGAN COASTAL AND OPEN LAKE BUOY OBSERVATIONS

STATION/POSITION TEMP    WIND        PRES    VSBY  WAVE
                 AIR SEA DIR/SP/G                  HT/PER
                 (F)     (DEG/KT/KT) (MB)    (MI)  (FT/S)
CALUMET HARBOR    30     220/  6/  9 1020.0R
MICHIGAN CITY     29     240/ 11/ 12   N/A
SAINT JOSEPH      33     220/ 10/ 12 1020.7S
MICHIGAN CITY CG     36                N/A       6   1

$$
&&


USA.gov is the U.S. government's official web portal to all federal, state and local government web resources and services.